OPTUS 10

Last updated on Thu Nov 21 2024 00:02:42 GMT+0000 (Coordinated Universal Time)

1 40146U 14054A 24324.64466615 -.00000145 00000+0 00000+0 0 9991 2 40146 0.0171 179.9629 0002172 9.8642 257.3986 1.00271996 37263
UTC large
Height (km)
Speed (km/s)
/
Latitude / Longitude
Inclination (degrees)
Orbital Period (minutes)
Azimuth
Elevation
Range (km)
Doppler Factor

Next 0 passes for location: London (51.5072 / 0.1276)

Sorry there are no passes over London.